Time,TemperatureF,DewpointF,PressureIn,WindDirection,WindDirectionDegrees,WindSpeedMPH,WindSpeedGustMPH,Humidity,HourlyPrecipIn,Conditions,Clouds,dailyrainin,SoftwareType,DateUTC
2013-03-09 00:02:00,46.5,40.7,30.05,North,360,0.0,0.0,80,0.00,,,0.00,WeatherTracker,2013-03-09 08:02:00,
2013-03-09 00:07:00,46.3,40.5,30.05,North,360,0.0,0.0,80,0.00,,,0.00,WeatherTracker,2013-03-09 08:07:00,
2013-03-09 00:12:00,45.9,40.4,30.05,North,360,0.0,0.0,81,0.00,,,0.00,WeatherTracker,2013-03-09 08:12:00,
2013-03-09 00:17:00,45.7,40.2,30.05,North,360,0.0,0.0,81,0.00,,,0.00,WeatherTracker,2013-03-09 08:17:00,
2013-03-09 00:22:00,45.4,40.2,30.05,North,360,0.0,0.0,82,0.00,,,0.00,WeatherTracker,2013-03-09 08:22:00,
2013-03-09 00:27:00,45.2,40.0,30.05,North,360,0.0,0.0,82,0.00,,,0.00,WeatherTracker,2013-03-09 08:27:00,
2013-03-09 00:32:00,45.0,40.2,30.05,North,360,0.0,0.0,83,0.00,,,0.00,WeatherTracker,2013-03-09 08:32:00,
2013-03-09 00:37:00,44.9,39.7,30.05,North,360,0.0,0.0,82,0.00,,,0.00,WeatherTracker,2013-03-09 08:37:00,
2013-03-09 00:42:00,44.7,39.9,30.06,North,360,0.0,0.0,83,0.00,,,0.00,WeatherTracker,2013-03-09 08:42:00,
2013-03-09 00:47:00,44.5,39.7,30.06,North,360,0.0,0.0,83,0.00,,,0.00,WeatherTracker,2013-03-09 08:47:00,
2013-03-09 00:52:00,44.3,39.8,30.06,North,360,0.0,0.0,84,0.00,,,0.00,WeatherTracker,2013-03-09 08:52:00,
2013-03-09 00:57:00,44.1,39.6,30.07,North,360,0.0,0.0,84,0.00,,,0.00,WeatherTracker,2013-03-09 08:57:00,
2013-03-09 01:02:00,44.0,39.5,30.07,North,360,0.0,0.0,84,0.00,,,0.00,WeatherTracker,2013-03-09 09:02:00,
2013-03-09 01:07:00,43.8,39.6,30.07,North,360,0.0,0.0,85,0.00,,,0.00,WeatherTracker,2013-03-09 09:07:00,
2013-03-09 01:13:00,43.6,39.4,30.07,North,360,0.0,0.0,85,0.00,,,0.00,WeatherTracker,2013-03-09 09:13:00,
2013-03-09 01:18:00,43.4,39.2,30.08,North,360,0.0,0.0,85,0.00,,,0.00,WeatherTracker,2013-03-09 09:18:00,
2013-03-09 01:23:00,43.3,39.4,30.08,North,360,0.0,1.0,86,0.00,,,0.00,WeatherTracker,2013-03-09 09:23:00,
2013-03-09 01:28:00,43.3,39.7,30.08,North,360,0.0,1.0,87,0.00,,,0.00,WeatherTracker,2013-03-09 09:28:00,
2013-03-09 01:33:00,43.4,39.8,30.08,North,360,0.0,0.0,87,0.00,,,0.00,WeatherTracker,2013-03-09 09:33:00,
2013-03-09 01:38:00,43.7,40.4,30.08,North,360,0.0,1.0,88,0.00,,,0.00,WeatherTracker,2013-03-09 09:38:00,
2013-03-09 01:43:00,44.0,40.7,30.08,North,360,0.0,1.0,88,0.00,,,0.00,WeatherTracker,2013-03-09 09:43:00,
2013-03-09 01:48:00,44.3,41.0,30.08,North,360,0.0,0.0,88,0.00,,,0.00,WeatherTracker,2013-03-09 09:48:00,
2013-03-09 01:53:00,44.7,41.1,30.08,North,360,0.0,1.0,87,0.00,,,0.00,WeatherTracker,2013-03-09 09:53:00,
2013-03-09 01:58:00,45.0,41.4,30.08,North,360,0.0,1.0,87,0.00,,,0.00,WeatherTracker,2013-03-09 09:58:00,
2013-03-09 02:03:00,45.4,41.8,30.08,North,360,0.0,1.0,87,0.00,,,0.00,WeatherTracker,2013-03-09 10:03:00,
2013-03-09 02:08:00,45.8,41.9,30.07,North,360,0.0,1.0,86,0.00,,,0.00,WeatherTracker,2013-03-09 10:08:00,
2013-03-09 02:13:00,46.0,41.7,30.07,NE,41,0.0,1.0,85,0.00,,,0.00,WeatherTracker,2013-03-09 10:13:00,
2013-03-09 02:18:00,46.3,41.7,30.07,NE,42,0.0,1.0,84,0.00,,,0.00,WeatherTracker,2013-03-09 10:18:00,
2013-03-09 02:23:00,46.4,41.8,30.07,NE,41,0.0,1.0,84,0.00,,,0.00,WeatherTracker,2013-03-09 10:23:00,
2013-03-09 02:28:00,46.5,41.9,30.07,NE,42,0.0,1.0,84,0.00,,,0.00,WeatherTracker,2013-03-09 10:28:00,
2013-03-09 02:33:00,46.4,41.5,30.07,NE,41,0.0,1.0,83,0.00,,,0.00,WeatherTracker,2013-03-09 10:33:00,
2013-03-09 02:38:00,46.4,41.5,30.07,NE,42,0.0,0.0,83,0.00,,,0.00,WeatherTracker,2013-03-09 10:38:00,
2013-03-09 02:43:00,46.3,41.4,30.06,NE,42,0.0,1.0,83,0.00,,,0.00,WeatherTracker,2013-03-09 10:43:00,
2013-03-09 02:48:00,46.2,41.3,30.06,NE,41,0.0,1.0,83,0.00,,,0.00,WeatherTracker,2013-03-09 10:48:00,
2013-03-09 02:53:00,46.1,41.2,30.06,NE,42,0.0,0.0,83,0.00,,,0.00,WeatherTracker,2013-03-09 10:53:00,
2013-03-09 02:58:00,46.0,41.1,30.06,NE,41,0.0,0.0,83,0.00,,,0.00,WeatherTracker,2013-03-09 10:58:00,
2013-03-09 03:03:00,45.8,40.6,30.06,NE,42,0.0,0.0,82,0.00,,,0.00,WeatherTracker,2013-03-09 11:03:00,
2013-03-09 03:08:00,45.6,40.4,30.06,NE,42,0.0,0.0,82,0.00,,,0.00,WeatherTracker,2013-03-09 11:08:00,
2013-03-09 03:14:00,45.5,40.3,30.06,NE,41,0.0,0.0,82,0.00,,,0.00,WeatherTracker,2013-03-09 11:14:00,
2013-03-09 03:19:00,45.2,40.3,30.07,NE,42,0.0,0.0,83,0.00,,,0.00,WeatherTracker,2013-03-09 11:19:00,
2013-03-09 03:24:00,45.0,40.2,30.06,NE,41,0.0,0.0,83,0.00,,,0.00,WeatherTracker,2013-03-09 11:24:00,
2013-03-09 03:29:00,44.8,40.0,30.07,NE,41,0.0,0.0,83,0.00,,,0.00,WeatherTracker,2013-03-09 11:29:00,
2013-03-09 03:34:00,44.5,39.7,30.07,NE,42,0.0,0.0,83,0.00,,,0.00,WeatherTracker,2013-03-09 11:34:00,
2013-03-09 03:39:00,44.3,39.8,30.07,NE,42,0.0,0.0,84,0.00,,,0.00,WeatherTracker,2013-03-09 11:39:00,
2013-03-09 03:44:00,44.1,39.6,30.08,NE,42,0.0,0.0,84,0.00,,,0.00,WeatherTracker,2013-03-09 11:44:00,
2013-03-09 03:49:00,44.0,39.5,30.08,NE,41,0.0,0.0,84,0.00,,,0.00,WeatherTracker,2013-03-09 11:49:00,
2013-03-09 03:54:00,43.7,39.2,30.08,NE,41,0.0,0.0,84,0.00,,,0.00,WeatherTracker,2013-03-09 11:54:00,
2013-03-09 03:59:00,43.5,39.3,30.08,NE,42,0.0,0.0,85,0.00,,,0.00,WeatherTracker,2013-03-09 11:59:00,
2013-03-09 04:04:00,43.3,39.1,30.08,NE,41,0.0,0.0,85,0.00,,,0.00,WeatherTracker,2013-03-09 12:04:00,
2013-03-09 04:09:00,43.2,39.3,30.09,NE,42,0.0,0.0,86,0.00,,,0.00,WeatherTracker,2013-03-09 12:09:00,
2013-03-09 04:14:00,43.0,39.1,30.09,NE,42,0.0,0.0,86,0.00,,,0.00,WeatherTracker,2013-03-09 12:14:00,
2013-03-09 04:19:00,42.9,39.0,30.09,NE,42,0.0,0.0,86,0.00,,,0.00,WeatherTracker,2013-03-09 12:19:00,
2013-03-09 04:24:00,42.7,38.8,30.10,NE,42,0.0,0.0,86,0.00,,,0.00,WeatherTracker,2013-03-09 12:24:00,
2013-03-09 04:29:00,42.6,38.7,30.10,NE,42,0.0,0.0,86,0.00,,,0.00,WeatherTracker,2013-03-09 12:29:00,
2013-03-09 04:34:00,42.4,38.5,30.11,NE,42,0.0,0.0,86,0.00,,,0.00,WeatherTracker,2013-03-09 12:34:00,
2013-03-09 04:39:00,42.2,38.3,30.11,NE,42,0.0,0.0,86,0.00,,,0.00,WeatherTracker,2013-03-09 12:39:00,
2013-03-09 04:44:00,42.1,38.5,30.11,NE,42,0.0,0.0,87,0.00,,,0.00,WeatherTracker,2013-03-09 12:44:00,
2013-03-09 04:49:00,42.0,38.4,30.12,NE,41,0.0,0.0,87,0.00,,,0.00,WeatherTracker,2013-03-09 12:49:00,
2013-03-09 04:54:00,41.9,38.3,30.12,NE,42,0.0,0.0,87,0.00,,,0.00,WeatherTracker,2013-03-09 12:54:00,
2013-03-09 04:59:00,41.8,38.2,30.13,NE,41,0.0,0.0,87,0.00,,,0.00,WeatherTracker,2013-03-09 12:59:00,
2013-03-09 05:04:00,41.7,39.6,30.13,NE,42,0.0,0.0,92,0.00,,,0.00,WeatherTracker,2013-03-09 13:04:00,
2013-03-09 05:10:00,41.6,38.3,30.13,NE,42,0.0,0.0,88,0.00,,,0.00,WeatherTracker,2013-03-09 13:10:00,
2013-03-09 05:15:00,41.4,38.1,30.14,NE,41,0.0,0.0,88,0.00,,,0.00,WeatherTracker,2013-03-09 13:15:00,
2013-03-09 05:20:00,41.3,38.0,30.14,NE,42,0.0,0.0,88,0.00,,,0.00,WeatherTracker,2013-03-09 13:20:00,
2013-03-09 05:25:00,41.3,38.0,30.14,NE,42,0.0,0.0,88,0.00,,,0.00,WeatherTracker,2013-03-09 13:25:00,
2013-03-09 05:30:00,41.3,38.0,30.15,NE,41,0.0,0.0,88,0.00,,,0.00,WeatherTracker,2013-03-09 13:30:00,
2013-03-09 05:35:00,41.3,38.3,30.15,NE,41,0.0,0.0,89,0.00,,,0.00,WeatherTracker,2013-03-09 13:35:00,
2013-03-09 05:40:00,41.3,38.3,30.15,NE,42,0.0,0.0,89,0.00,,,0.00,WeatherTracker,2013-03-09 13:40:00,
2013-03-09 05:45:00,41.2,38.2,30.15,NE,42,0.0,0.0,89,0.00,,,0.00,WeatherTracker,2013-03-09 13:45:00,
2013-03-09 05:50:00,41.1,38.1,30.15,NE,41,0.0,0.0,89,0.00,,,0.00,WeatherTracker,2013-03-09 13:50:00,
2013-03-09 05:55:00,41.1,38.1,30.16,NE,41,0.0,0.0,89,0.00,,,0.00,WeatherTracker,2013-03-09 13:55:00,
2013-03-09 06:00:00,41.1,38.1,30.16,NE,42,0.0,0.0,89,0.00,,,0.00,WeatherTracker,2013-03-09 14:00:00,
2013-03-09 06:05:00,41.0,38.3,30.16,NE,42,0.0,0.0,90,0.00,,,0.00,WeatherTracker,2013-03-09 14:05:00,
2013-03-09 06:10:00,41.0,38.3,30.16,NE,42,0.0,0.0,90,0.00,,,0.00,WeatherTracker,2013-03-09 14:10:00,
2013-03-09 06:15:00,40.9,38.2,30.16,NE,42,0.0,0.0,90,0.00,,,0.00,WeatherTracker,2013-03-09 14:15:00,
2013-03-09 06:20:00,40.8,38.1,30.16,NE,42,0.0,0.0,90,0.00,,,0.00,WeatherTracker,2013-03-09 14:20:00,
2013-03-09 06:25:00,40.8,38.1,30.16,NE,41,0.0,0.0,90,0.00,,,0.00,WeatherTracker,2013-03-09 14:25:00,
2013-03-09 06:30:00,40.8,38.1,30.16,NE,42,0.0,0.0,90,0.00,,,0.00,WeatherTracker,2013-03-09 14:30:00,
2013-03-09 06:35:00,40.7,38.0,30.17,NE,41,0.0,0.0,90,0.00,,,0.00,WeatherTracker,2013-03-09 14:35:00,
2013-03-09 06:40:00,40.7,38.3,30.17,NE,42,0.0,0.0,91,0.00,,,0.00,WeatherTracker,2013-03-09 14:40:00,
2013-03-09 06:45:00,40.8,38.4,30.17,NE,42,0.0,0.0,91,0.00,,,0.00,WeatherTracker,2013-03-09 14:45:00,
2013-03-09 06:50:00,40.7,38.3,30.18,NE,41,0.0,0.0,91,0.00,,,0.00,WeatherTracker,2013-03-09 14:50:00,
2013-03-09 06:55:00,40.7,38.3,30.18,NE,42,0.0,0.0,91,0.00,,,0.00,WeatherTracker,2013-03-09 14:55:00,
2013-03-09 07:00:00,40.7,38.3,30.18,NE,41,0.0,0.0,91,0.00,,,0.00,WeatherTracker,2013-03-09 15:00:00,
2013-03-09 07:06:00,40.7,38.3,30.18,NE,41,0.0,0.0,91,0.00,,,0.00,WeatherTracker,2013-03-09 15:06:00,
2013-03-09 07:11:00,40.8,38.4,30.18,NE,42,0.0,0.0,91,0.00,,,0.00,WeatherTracker,2013-03-09 15:11:00,
2013-03-09 07:16:00,40.9,38.5,30.18,NE,42,0.0,0.0,91,0.00,,,0.00,WeatherTracker,2013-03-09 15:16:00,
2013-03-09 07:21:00,41.1,39.0,30.18,NE,42,0.0,0.0,92,0.00,,,0.00,WeatherTracker,2013-03-09 15:21:00,
2013-03-09 07:26:00,41.3,39.2,30.18,NE,42,0.0,0.0,92,0.00,,,0.00,WeatherTracker,2013-03-09 15:26:00,
2013-03-09 07:31:00,41.7,39.8,30.19,NE,42,0.0,0.0,93,0.00,,,0.00,WeatherTracker,2013-03-09 15:31:00,
2013-03-09 07:36:00,42.0,40.1,30.19,NE,42,0.0,0.0,93,0.00,,,0.00,WeatherTracker,2013-03-09 15:36:00,
2013-03-09 07:41:00,42.4,40.5,30.19,NE,41,0.0,0.0,93,0.00,,,0.00,WeatherTracker,2013-03-09 15:41:00,
2013-03-09 07:46:00,42.8,40.9,30.19,NE,42,0.0,0.0,93,0.00,,,0.00,WeatherTracker,2013-03-09 15:46:00,
2013-03-09 07:51:00,43.2,41.3,30.20,NE,42,0.0,0.0,93,0.00,,,0.00,WeatherTracker,2013-03-09 15:51:00,
2013-03-09 07:56:00,43.6,41.7,30.20,NE,41,0.0,0.0,93,0.00,,,0.00,WeatherTracker,2013-03-09 15:56:00,
2013-03-09 08:01:00,44.2,42.3,30.20,NE,42,0.0,1.0,93,0.00,,,0.00,WeatherTracker,2013-03-09 16:01:00,
2013-03-09 08:06:00,44.8,42.9,30.20,NE,42,0.0,1.0,93,0.00,,,0.00,WeatherTracker,2013-03-09 16:06:00,
2013-03-09 08:11:00,45.2,43.0,30.20,NE,42,0.0,1.0,92,0.00,,,0.00,WeatherTracker,2013-03-09 16:11:00,
2013-03-09 08:16:00,45.8,43.3,30.21,NE,42,0.0,1.0,91,0.00,,,0.00,WeatherTracker,2013-03-09 16:16:00,
2013-03-09 08:21:00,46.3,43.8,30.21,NE,41,0.0,0.0,91,0.00,,,0.00,WeatherTracker,2013-03-09 16:21:00,
2013-03-09 08:26:00,46.8,43.7,30.21,NE,42,0.0,1.0,89,0.00,,,0.00,WeatherTracker,2013-03-09 16:26:00,
2013-03-09 08:31:00,47.4,44.3,30.21,NE,42,0.0,1.0,89,0.00,,,0.00,WeatherTracker,2013-03-09 16:31:00,
2013-03-09 08:36:00,48.0,44.6,30.21,North,360,0.0,1.0,88,0.00,,,0.00,WeatherTracker,2013-03-09 16:36:00,
2013-03-09 08:41:00,48.5,44.5,30.21,North,360,1.0,1.0,86,0.00,,,0.00,WeatherTracker,2013-03-09 16:41:00,
2013-03-09 08:46:00,48.9,44.6,30.21,North,360,0.0,1.0,85,0.00,,,0.00,WeatherTracker,2013-03-09 16:46:00,
2013-03-09 08:51:00,49.3,44.7,30.22,North,360,0.0,1.0,84,0.00,,,0.00,WeatherTracker,2013-03-09 16:51:00,
2013-03-09 08:56:00,49.8,44.8,30.21,North,360,1.0,1.0,83,0.00,,,0.00,WeatherTracker,2013-03-09 16:56:00,
2013-03-09 09:01:00,50.1,44.8,30.22,North,360,0.0,1.0,82,0.00,,,0.00,WeatherTracker,2013-03-09 17:01:00,
2013-03-09 09:06:00,50.5,44.9,30.22,North,360,0.0,1.0,81,0.00,,,0.00,WeatherTracker,2013-03-09 17:06:00,
2013-03-09 09:11:00,50.8,44.9,30.22,North,360,1.0,1.0,80,0.00,,,0.00,WeatherTracker,2013-03-09 17:11:00,
2013-03-09 09:16:00,51.2,44.9,30.22,North,360,0.0,1.0,79,0.00,,,0.00,WeatherTracker,2013-03-09 17:16:00,
2013-03-09 09:21:00,51.6,44.6,30.23,North,360,0.0,2.0,77,0.00,,,0.00,WeatherTracker,2013-03-09 17:21:00,
2013-03-09 09:27:00,52.1,45.1,30.23,North,360,0.0,2.0,77,0.00,,,0.00,WeatherTracker,2013-03-09 17:27:00,
2013-03-09 09:32:00,52.7,45.0,30.22,North,360,0.0,1.0,75,0.00,,,0.00,WeatherTracker,2013-03-09 17:32:00,
2013-03-09 09:37:00,53.4,45.0,30.23,North,5,0.0,1.0,73,0.00,,,0.00,WeatherTracker,2013-03-09 17:37:00,
2013-03-09 09:42:00,54.1,45.3,30.23,North,355,0.0,2.0,72,0.00,,,0.00,WeatherTracker,2013-03-09 17:42:00,
2013-03-09 09:47:00,54.6,44.3,30.23,ENE,57,0.0,3.0,68,0.00,,,0.00,WeatherTracker,2013-03-09 17:47:00,
2013-03-09 09:52:00,55.0,44.2,30.23,NNE,15,0.0,3.0,67,0.00,,,0.00,WeatherTracker,2013-03-09 17:52:00,
2013-03-09 09:57:00,55.4,44.2,30.23,NNE,14,1.0,3.0,66,0.00,,,0.00,WeatherTracker,2013-03-09 17:57:00,
2013-03-09 10:02:00,55.8,43.8,30.23,NNE,17,0.0,2.0,64,0.00,,,0.00,WeatherTracker,2013-03-09 18:02:00,
2013-03-09 10:07:00,56.2,43.8,30.23,NNE,21,1.0,2.0,63,0.00,,,0.00,WeatherTracker,2013-03-09 18:07:00,
2013-03-09 10:12:00,56.5,44.1,30.23,NE,48,0.0,4.0,63,0.00,,,0.00,WeatherTracker,2013-03-09 18:12:00,
2013-03-09 10:17:00,56.8,44.8,30.23,NNE,32,0.0,4.0,64,0.00,,,0.00,WeatherTracker,2013-03-09 18:17:00,
2013-03-09 10:22:00,57.1,44.2,30.23,NE,53,1.0,4.0,62,0.00,,,0.00,WeatherTracker,2013-03-09 18:22:00,
2013-03-09 10:27:00,57.2,43.4,30.23,WNW,302,1.0,2.0,60,0.00,,,0.00,WeatherTracker,2013-03-09 18:27:00,
2013-03-09 10:32:00,57.5,44.2,30.23,North,360,1.0,2.0,61,0.00,,,0.00,WeatherTracker,2013-03-09 18:32:00,
2013-03-09 10:37:00,57.8,44.0,30.23,NE,56,2.0,3.0,60,0.00,,,0.00,WeatherTracker,2013-03-09 18:37:00,
2013-03-09 10:42:00,58.0,42.9,30.23,NE,45,0.0,3.0,57,0.00,,,0.00,WeatherTracker,2013-03-09 18:42:00,
2013-03-09 10:47:00,58.4,44.1,30.23,SE,129,1.0,2.0,59,0.00,,,0.00,WeatherTracker,2013-03-09 18:47:00,
2013-03-09 10:52:00,58.7,43.0,30.24,NNE,26,1.0,3.0,56,0.00,,,0.00,WeatherTracker,2013-03-09 18:52:00,
2013-03-09 10:57:00,59.0,43.3,30.24,ENE,57,1.0,3.0,56,0.00,,,0.00,WeatherTracker,2013-03-09 18:57:00,
2013-03-09 11:02:00,59.0,43.8,30.24,ENE,59,0.0,4.0,57,0.00,,,0.00,WeatherTracker,2013-03-09 19:02:00,
2013-03-09 11:07:00,59.4,42.7,30.24,NE,38,0.0,4.0,54,0.00,,,0.00,WeatherTracker,2013-03-09 19:07:00,
2013-03-09 11:12:00,59.7,43.0,30.24,North,355,0.0,4.0,54,0.00,,,0.00,WeatherTracker,2013-03-09 19:12:00,
2013-03-09 11:18:00,59.8,42.6,30.24,NE,48,1.0,5.0,53,0.00,,,0.00,WeatherTracker,2013-03-09 19:18:00,
2013-03-09 11:23:00,60.0,43.8,30.24,NE,48,0.0,5.0,55,0.00,,,0.00,WeatherTracker,2013-03-09 19:23:00,
2013-03-09 11:28:00,60.2,43.0,30.24,ENE,59,1.0,3.0,53,0.00,,,0.00,WeatherTracker,2013-03-09 19:28:00,
2013-03-09 11:33:00,60.6,43.4,30.24,ENE,59,1.0,3.0,53,0.00,,,0.00,WeatherTracker,2013-03-09 19:33:00,
2013-03-09 11:38:00,60.9,41.1,30.24,NE,53,3.0,7.0,48,0.00,,,0.00,WeatherTracker,2013-03-09 19:38:00,
2013-03-09 11:43:00,61.1,40.7,30.24,NE,44,0.0,7.0,47,0.00,,,0.00,WeatherTracker,2013-03-09 19:43:00,
2013-03-09 11:48:00,61.2,41.3,30.24,ENE,59,1.0,7.0,48,0.00,,,0.00,WeatherTracker,2013-03-09 19:48:00,
2013-03-09 11:53:00,61.3,40.9,30.25,East,88,1.0,5.0,47,0.00,,,0.00,WeatherTracker,2013-03-09 19:53:00,
2013-03-09 11:58:00,61.6,41.2,30.25,NE,42,3.0,5.0,47,0.00,,,0.00,WeatherTracker,2013-03-09 19:58:00,
2013-03-09 12:03:00,61.8,41.4,30.25,NE,45,1.0,4.0,47,0.00,,,0.00,WeatherTracker,2013-03-09 20:03:00,
2013-03-09 12:08:00,62.0,42.1,30.25,NE,44,0.0,5.0,48,0.00,,,0.00,WeatherTracker,2013-03-09 20:08:00,
2013-03-09 12:13:00,62.1,41.1,30.25,NW,311,0.0,5.0,46,0.00,,,0.00,WeatherTracker,2013-03-09 20:13:00,
2013-03-09 12:18:00,62.2,42.3,30.25,NNE,23,0.0,4.0,48,0.00,,,0.00,WeatherTracker,2013-03-09 20:18:00,
2013-03-09 12:23:00,62.5,42.0,30.24,NE,44,0.0,3.0,47,0.00,,,0.00,WeatherTracker,2013-03-09 20:23:00,
2013-03-09 12:28:00,62.7,41.6,30.24,NNW,336,0.0,3.0,46,0.00,,,0.00,WeatherTracker,2013-03-09 20:28:00,
2013-03-09 12:33:00,62.7,42.7,30.24,NNW,336,0.0,2.0,48,0.00,,,0.00,WeatherTracker,2013-03-09 20:33:00,
2013-03-09 12:38:00,63.1,42.0,30.24,North,355,1.0,2.0,46,0.00,,,0.00,WeatherTracker,2013-03-09 20:38:00,
2013-03-09 12:43:00,63.4,42.3,30.23,NE,36,0.0,3.0,46,0.00,,,0.00,WeatherTracker,2013-03-09 20:43:00,
2013-03-09 12:48:00,63.7,42.5,30.23,NNE,18,0.0,3.0,46,0.00,,,0.00,WeatherTracker,2013-03-09 20:48:00,
2013-03-09 12:53:00,64.0,42.2,30.23,NE,56,2.0,2.0,45,0.00,,,0.00,WeatherTracker,2013-03-09 20:53:00,
2013-03-09 12:58:00,64.1,43.5,30.23,NE,51,1.0,5.0,47,0.00,,,0.00,WeatherTracker,2013-03-09 20:58:00,
2013-03-09 13:03:00,64.4,43.2,30.23,NW,321,1.0,5.0,46,0.00,,,0.00,WeatherTracker,2013-03-09 21:03:00,
2013-03-09 13:08:00,64.6,42.8,30.23,NNE,32,1.0,3.0,45,0.00,,,0.00,WeatherTracker,2013-03-09 21:08:00,
2013-03-09 13:13:00,64.6,42.8,30.22,NNE,33,0.0,3.0,45,0.00,,,0.00,WeatherTracker,2013-03-09 21:13:00,
2013-03-09 13:18:00,64.7,42.3,30.22,North,355,1.0,4.0,44,0.00,,,0.00,WeatherTracker,2013-03-09 21:18:00,
2013-03-09 13:23:00,64.8,42.4,30.22,NE,54,0.0,4.0,44,0.00,,,0.00,WeatherTracker,2013-03-09 21:23:00,
2013-03-09 13:28:00,64.9,42.5,30.22,NNW,344,0.0,3.0,44,0.00,,,0.00,WeatherTracker,2013-03-09 21:28:00,
2013-03-09 13:33:00,65.2,43.3,30.21,NE,45,0.0,3.0,45,0.00,,,0.00,WeatherTracker,2013-03-09 21:33:00,
2013-03-09 13:39:00,65.5,41.8,30.22,WSW,246,0.0,3.0,42,0.00,,,0.00,WeatherTracker,2013-03-09 21:39:00,
2013-03-09 13:44:00,65.6,41.9,30.21,ENE,68,0.0,4.0,42,0.00,,,0.00,WeatherTracker,2013-03-09 21:44:00,
2013-03-09 13:49:00,65.9,43.4,30.21,ENE,68,0.0,4.0,44,0.00,,,0.00,WeatherTracker,2013-03-09 21:49:00,
2013-03-09 13:54:00,66.1,42.3,30.21,ENE,63,0.0,2.0,42,0.00,,,0.00,WeatherTracker,2013-03-09 21:54:00,
2013-03-09 13:59:00,66.4,42.6,30.21,ENE,62,1.0,2.0,42,0.00,,,0.00,WeatherTracker,2013-03-09 21:59:00,
2013-03-09 14:04:00,66.7,42.2,30.21,ENE,61,0.0,2.0,41,0.00,,,0.00,WeatherTracker,2013-03-09 22:04:00,
2013-03-09 14:09:00,66.9,41.1,30.21,NW,325,0.0,3.0,39,0.00,,,0.00,WeatherTracker,2013-03-09 22:09:00,
2013-03-09 14:14:00,67.2,41.4,30.21,NW,304,0.0,3.0,39,0.00,,,0.00,WeatherTracker,2013-03-09 22:14:00,
2013-03-09 14:19:00,67.3,43.4,30.21,ENE,71,0.0,3.0,42,0.00,,,0.00,WeatherTracker,2013-03-09 22:19:00,
2013-03-09 14:24:00,67.4,43.5,30.21,ENE,71,1.0,3.0,42,0.00,,,0.00,WeatherTracker,2013-03-09 22:24:00,
2013-03-09 14:29:00,67.4,42.2,30.21,North,360,0.0,2.0,40,0.00,,,0.00,WeatherTracker,2013-03-09 22:29:00,
2013-03-09 14:34:00,67.5,42.3,30.21,NE,52,0.0,3.0,40,0.00,,,0.00,WeatherTracker,2013-03-09 22:34:00,
2013-03-09 14:39:00,67.8,42.6,30.21,NE,53,0.0,3.0,40,0.00,,,0.00,WeatherTracker,2013-03-09 22:39:00,
2013-03-09 14:44:00,67.9,42.7,30.21,North,355,0.0,2.0,40,0.00,,,0.00,WeatherTracker,2013-03-09 22:44:00,
2013-03-09 14:49:00,67.9,42.0,30.21,NE,50,0.0,2.0,39,0.00,,,0.00,WeatherTracker,2013-03-09 22:49:00,
2013-03-09 14:54:00,67.8,42.6,30.21,NE,49,0.0,2.0,40,0.00,,,0.00,WeatherTracker,2013-03-09 22:54:00,
2013-03-09 14:59:00,67.4,42.2,30.21,NW,326,0.0,2.0,40,0.00,,,0.00,WeatherTracker,2013-03-09 22:59:00,
2013-03-09 15:04:00,67.0,41.2,30.21,NW,326,0.0,2.0,39,0.00,,,0.00,WeatherTracker,2013-03-09 23:04:00,
2013-03-09 15:09:00,66.5,40.8,30.22,NE,55,0.0,3.0,39,0.00,,,0.00,WeatherTracker,2013-03-09 23:09:00,
2013-03-09 15:14:00,66.0,40.3,30.21,NNE,24,0.0,3.0,39,0.00,,,0.00,WeatherTracker,2013-03-09 23:14:00,
2013-03-09 15:19:00,65.5,41.2,30.21,NNE,24,0.0,2.0,41,0.00,,,0.00,WeatherTracker,2013-03-09 23:19:00,
2013-03-09 15:24:00,65.2,40.3,30.21,NNE,26,0.0,2.0,40,0.00,,,0.00,WeatherTracker,2013-03-09 23:24:00,
2013-03-09 15:30:00,64.9,41.3,30.21,NNE,30,2.0,2.0,42,0.00,,,0.00,WeatherTracker,2013-03-09 23:30:00,
2013-03-09 15:35:00,64.7,40.5,30.21,NNW,336,1.0,2.0,41,0.00,,,0.00,WeatherTracker,2013-03-09 23:35:00,
2013-03-09 15:40:00,64.5,40.9,30.21,ENE,68,1.0,2.0,42,0.00,,,0.00,WeatherTracker,2013-03-09 23:40:00,
2013-03-09 15:45:00,64.3,41.3,30.21,WNW,292,1.0,2.0,43,0.00,,,0.00,WeatherTracker,2013-03-09 23:45:00,
2013-03-09 15:50:00,64.1,40.5,30.21,NE,52,1.0,2.0,42,0.00,,,0.00,WeatherTracker,2013-03-09 23:50:00,
2013-03-09 15:55:00,63.9,41.0,30.21,NE,53,0.0,2.0,43,0.00,,,0.00,WeatherTracker,2013-03-09 23:55:00,
2013-03-09 16:00:00,63.8,43.2,30.21,NE,53,0.0,2.0,47,0.00,,,0.00,WeatherTracker,2013-03-10 00:00:00,
2013-03-09 16:05:00,63.8,43.7,30.21,NE,53,1.0,2.0,48,0.00,,,0.00,WeatherTracker,2013-03-10 00:05:00,
2013-03-09 16:10:00,63.7,43.6,30.21,NE,52,1.0,2.0,48,0.00,,,0.00,WeatherTracker,2013-03-10 00:10:00,
2013-03-09 16:15:00,63.7,44.2,30.21,ENE,75,0.0,4.0,49,0.00,,,0.00,WeatherTracker,2013-03-10 00:15:00,
2013-03-09 16:20:00,63.6,43.5,30.21,ENE,75,0.0,4.0,48,0.00,,,0.00,WeatherTracker,2013-03-10 00:20:00,
2013-03-09 16:25:00,63.6,43.0,30.21,ENE,75,0.0,2.0,47,0.00,,,0.00,WeatherTracker,2013-03-10 00:25:00,
2013-03-09 16:30:00,63.5,45.6,30.21,ENE,75,0.0,2.0,52,0.00,,,0.00,WeatherTracker,2013-03-10 00:30:00,
2013-03-09 16:35:00,63.4,46.9,30.21,ENE,75,0.0,1.0,55,0.00,,,0.00,WeatherTracker,2013-03-10 00:35:00,
2013-03-09 16:40:00,63.2,43.2,30.21,East,92,0.0,3.0,48,0.00,,,0.00,WeatherTracker,2013-03-10 00:40:00,
2013-03-09 16:45:00,63.1,41.4,30.21,NE,56,1.0,3.0,45,0.00,,,0.00,WeatherTracker,2013-03-10 00:45:00,
2013-03-09 16:50:00,63.1,41.4,30.21,NW,319,1.0,2.0,45,0.00,,,0.00,WeatherTracker,2013-03-10 00:50:00,
2013-03-09 16:55:00,63.1,41.4,30.21,NW,319,0.0,2.0,45,0.00,,,0.00,WeatherTracker,2013-03-10 00:55:00,
2013-03-09 17:01:00,63.2,40.9,30.21,NE,55,1.0,4.0,44,0.00,,,0.00,WeatherTracker,2013-03-10 01:01:00,
2013-03-09 17:06:00,63.2,41.5,30.21,NE,55,0.0,4.0,45,0.00,,,0.00,WeatherTracker,2013-03-10 01:06:00,
2013-03-09 17:11:00,63.2,41.5,30.21,NE,47,0.0,2.0,45,0.00,,,0.00,WeatherTracker,2013-03-10 01:11:00,
2013-03-09 17:16:00,63.1,42.0,30.21,NE,45,0.0,2.0,46,0.00,,,0.00,WeatherTracker,2013-03-10 01:16:00,
2013-03-09 17:21:00,63.0,43.0,30.21,NE,45,0.0,1.0,48,0.00,,,0.00,WeatherTracker,2013-03-10 01:21:00,
2013-03-09 17:26:00,62.9,42.4,30.21,NE,55,0.0,4.0,47,0.00,,,0.00,WeatherTracker,2013-03-10 01:26:00,
2013-03-09 17:31:00,62.7,42.2,30.21,NE,55,0.0,4.0,47,0.00,,,0.00,WeatherTracker,2013-03-10 01:31:00,
2013-03-09 17:36:00,62.6,41.5,30.21,NE,55,0.0,2.0,46,0.00,,,0.00,WeatherTracker,2013-03-10 01:36:00,
2013-03-09 17:41:00,62.5,42.5,30.21,NE,55,0.0,1.0,48,0.00,,,0.00,WeatherTracker,2013-03-10 01:41:00,
2013-03-09 17:46:00,62.2,41.2,30.21,NE,55,0.0,1.0,46,0.00,,,0.00,WeatherTracker,2013-03-10 01:46:00,
2013-03-09 17:51:00,61.9,41.4,30.21,NE,55,0.0,1.0,47,0.00,,,0.00,WeatherTracker,2013-03-10 01:51:00,
2013-03-09 17:56:00,61.6,44.8,30.21,NE,55,0.0,0.0,54,0.00,,,0.00,WeatherTracker,2013-03-10 01:56:00,
2013-03-09 18:01:00,61.3,46.4,30.22,NE,55,0.0,0.0,58,0.00,,,0.00,WeatherTracker,2013-03-10 02:01:00,
2013-03-09 18:06:00,60.9,46.0,30.22,NE,55,0.0,0.0,58,0.00,,,0.00,WeatherTracker,2013-03-10 02:06:00,
2013-03-09 18:11:00,60.5,46.1,30.22,NE,55,0.0,0.0,59,0.00,,,0.00,WeatherTracker,2013-03-10 02:11:00,
2013-03-09 18:16:00,60.0,45.2,30.22,NE,55,0.0,0.0,58,0.00,,,0.00,WeatherTracker,2013-03-10 02:16:00,
2013-03-09 18:21:00,59.5,44.7,30.23,NE,55,0.0,0.0,58,0.00,,,0.00,WeatherTracker,2013-03-10 02:21:00,
2013-03-09 18:26:00,59.0,44.2,30.23,NE,55,0.0,0.0,58,0.00,,,0.00,WeatherTracker,2013-03-10 02:26:00,
2013-03-09 18:31:00,58.6,42.0,30.22,NE,55,0.0,0.0,54,0.00,,,0.00,WeatherTracker,2013-03-10 02:31:00,
2013-03-09 18:37:00,58.0,41.9,30.23,NE,55,0.0,0.0,55,0.00,,,0.00,WeatherTracker,2013-03-10 02:37:00,
2013-03-09 18:42:00,57.6,41.6,30.22,NE,55,0.0,0.0,55,0.00,,,0.00,WeatherTracker,2013-03-10 02:42:00,
2013-03-09 18:47:00,57.1,41.1,30.22,NE,55,0.0,0.0,55,0.00,,,0.00,WeatherTracker,2013-03-10 02:47:00,
2013-03-09 18:52:00,56.7,41.6,30.22,NE,55,0.0,0.0,57,0.00,,,0.00,WeatherTracker,2013-03-10 02:52:00,
2013-03-09 18:57:00,56.2,41.6,30.22,NE,55,0.0,0.0,58,0.00,,,0.00,WeatherTracker,2013-03-10 02:57:00,
2013-03-09 19:02:00,55.8,42.1,30.23,NE,55,0.0,0.0,60,0.00,,,0.00,WeatherTracker,2013-03-10 03:02:00,
2013-03-09 19:07:00,55.4,42.6,30.23,NE,55,0.0,0.0,62,0.00,,,0.00,WeatherTracker,2013-03-10 03:07:00,
2013-03-09 19:12:00,55.0,42.2,30.23,NE,55,0.0,0.0,62,0.00,,,0.00,WeatherTracker,2013-03-10 03:12:00,
2013-03-09 19:17:00,54.6,42.7,30.23,NE,55,0.0,0.0,64,0.00,,,0.00,WeatherTracker,2013-03-10 03:17:00,
2013-03-09 19:22:00,54.2,42.3,30.23,NE,55,0.0,0.0,64,0.00,,,0.00,WeatherTracker,2013-03-10 03:22:00,
2013-03-09 19:27:00,53.8,41.9,30.23,NE,55,0.0,0.0,64,0.00,,,0.00,WeatherTracker,2013-03-10 03:27:00,
2013-03-09 19:32:00,53.4,42.3,30.23,NE,55,0.0,0.0,66,0.00,,,0.00,WeatherTracker,2013-03-10 03:32:00,
2013-03-09 19:37:00,53.2,43.7,30.23,NE,55,0.0,0.0,70,0.00,,,0.00,WeatherTracker,2013-03-10 03:37:00,
2013-03-09 19:42:00,52.9,44.8,30.23,NE,55,0.0,0.0,74,0.00,,,0.00,WeatherTracker,2013-03-10 03:42:00,
2013-03-09 19:47:00,52.8,45.8,30.23,NE,55,0.0,0.0,77,0.00,,,0.00,WeatherTracker,2013-03-10 03:47:00,
2013-03-09 19:52:00,52.7,45.7,30.24,NE,55,0.0,1.0,77,0.00,,,0.00,WeatherTracker,2013-03-10 03:52:00,
2013-03-09 19:57:00,52.5,45.8,30.24,NE,55,0.0,1.0,78,0.00,,,0.00,WeatherTracker,2013-03-10 03:57:00,
2013-03-09 20:02:00,52.3,45.6,30.24,NE,55,0.0,0.0,78,0.00,,,0.00,WeatherTracker,2013-03-10 04:02:00,
2013-03-09 20:07:00,52.1,45.8,30.24,NE,55,0.0,0.0,79,0.00,,,0.00,WeatherTracker,2013-03-10 04:07:00,
2013-03-09 20:12:00,51.8,45.5,30.24,NE,55,0.0,0.0,79,0.00,,,0.00,WeatherTracker,2013-03-10 04:12:00,
2013-03-09 20:18:00,51.6,45.6,30.25,NE,55,0.0,0.0,80,0.00,,,0.00,WeatherTracker,2013-03-10 04:18:00,
2013-03-09 20:23:00,51.3,45.3,30.25,NE,55,0.0,0.0,80,0.00,,,0.00,WeatherTracker,2013-03-10 04:23:00,
2013-03-09 20:28:00,51.1,45.1,30.25,NE,55,0.0,0.0,80,0.00,,,0.00,WeatherTracker,2013-03-10 04:28:00,
2013-03-09 20:33:00,50.9,45.0,30.25,NE,55,0.0,0.0,80,0.00,,,0.00,WeatherTracker,2013-03-10 04:33:00,
2013-03-09 20:38:00,50.6,45.0,30.25,NE,55,0.0,0.0,81,0.00,,,0.00,WeatherTracker,2013-03-10 04:38:00,
2013-03-09 20:43:00,50.3,44.7,30.25,NE,55,0.0,0.0,81,0.00,,,0.00,WeatherTracker,2013-03-10 04:43:00,
2013-03-09 20:48:00,50.1,44.8,30.25,NE,55,0.0,0.0,82,0.00,,,0.00,WeatherTracker,2013-03-10 04:48:00,
2013-03-09 20:53:00,49.9,44.6,30.26,NE,55,0.0,0.0,82,0.00,,,0.00,WeatherTracker,2013-03-10 04:53:00,
2013-03-09 20:58:00,49.7,44.4,30.26,NE,55,0.0,0.0,82,0.00,,,0.00,WeatherTracker,2013-03-10 04:58:00,
2013-03-09 21:00:00,49.6,44.3,30.26,NE,55,0.0,0.0,82,0.00,,,0.00,WeatherTracker,2013-03-10 05:00:00,
2013-03-09 21:01:00,49.5,44.6,30.26,NE,55,0.0,0.0,83,0.00,,,0.00,WeatherTracker,2013-03-10 05:01:00,
2013-03-09 21:06:00,49.3,44.4,30.26,NE,55,0.0,0.0,83,0.00,,,0.00,WeatherTracker,2013-03-10 05:06:00,
2013-03-09 21:11:00,49.1,44.2,30.26,NE,55,0.0,0.0,83,0.00,,,0.00,WeatherTracker,2013-03-10 05:11:00,
2013-03-09 21:16:00,48.9,44.3,30.26,NE,55,0.0,0.0,84,0.00,,,0.00,WeatherTracker,2013-03-10 05:16:00,
2013-03-09 21:21:00,48.7,44.1,30.26,NE,55,0.0,0.0,84,0.00,,,0.00,WeatherTracker,2013-03-10 05:21:00,
2013-03-09 21:26:00,48.5,43.9,30.26,NE,55,0.0,0.0,84,0.00,,,0.00,WeatherTracker,2013-03-10 05:26:00,
2013-03-09 21:31:00,48.3,43.7,30.26,NE,55,0.0,0.0,84,0.00,,,0.00,WeatherTracker,2013-03-10 05:31:00,
2013-03-09 21:36:00,48.1,43.5,30.26,NE,55,0.0,0.0,84,0.00,,,0.00,WeatherTracker,2013-03-10 05:36:00,
2013-03-09 21:41:00,48.0,43.4,30.27,NE,55,0.0,0.0,84,0.00,,,0.00,WeatherTracker,2013-03-10 05:41:00,
2013-03-09 21:46:00,47.8,43.2,30.27,NE,55,0.0,0.0,84,0.00,,,0.00,WeatherTracker,2013-03-10 05:46:00,
2013-03-09 21:51:00,47.6,43.0,30.27,NE,55,0.0,0.0,84,0.00,,,0.00,WeatherTracker,2013-03-10 05:51:00,
2013-03-09 21:56:00,47.4,42.8,30.27,NE,55,0.0,0.0,84,0.00,,,0.00,WeatherTracker,2013-03-10 05:56:00,
2013-03-09 22:01:00,47.2,42.6,30.27,NE,55,0.0,0.0,84,0.00,,,0.00,WeatherTracker,2013-03-10 06:01:00,
2013-03-09 22:06:00,47.0,42.4,30.27,NE,55,0.0,0.0,84,0.00,,,0.00,WeatherTracker,2013-03-10 06:06:00,
2013-03-09 22:11:00,46.8,41.9,30.27,NE,55,0.0,0.0,83,0.00,,,0.00,WeatherTracker,2013-03-10 06:11:00,
2013-03-09 22:16:00,46.7,41.8,30.27,NE,55,0.0,0.0,83,0.00,,,0.00,WeatherTracker,2013-03-10 06:16:00,
2013-03-09 22:22:00,46.5,41.6,30.27,NE,55,0.0,0.0,83,0.00,,,0.00,WeatherTracker,2013-03-10 06:22:00,
2013-03-09 22:27:00,46.3,41.4,30.27,NE,55,0.0,0.0,83,0.00,,,0.00,WeatherTracker,2013-03-10 06:27:00,
2013-03-09 22:32:00,46.1,41.2,30.27,NE,55,0.0,0.0,83,0.00,,,0.00,WeatherTracker,2013-03-10 06:32:00,
2013-03-09 22:37:00,46.0,41.1,30.27,NE,55,0.0,0.0,83,0.00,,,0.00,WeatherTracker,2013-03-10 06:37:00,
2013-03-09 22:42:00,45.9,41.3,30.27,NE,55,0.0,0.0,84,0.00,,,0.00,WeatherTracker,2013-03-10 06:42:00,
2013-03-09 22:47:00,45.8,41.2,30.27,NE,55,0.0,0.0,84,0.00,,,0.00,WeatherTracker,2013-03-10 06:47:00,
2013-03-09 22:52:00,45.6,40.7,30.27,NE,55,0.0,0.0,83,0.00,,,0.00,WeatherTracker,2013-03-10 06:52:00,
2013-03-09 22:57:00,45.4,40.5,30.27,NE,55,0.0,0.0,83,0.00,,,0.00,WeatherTracker,2013-03-10 06:57:00,
2013-03-09 23:02:00,45.2,40.3,30.27,NE,55,0.0,0.0,83,0.00,,,0.00,WeatherTracker,2013-03-10 07:02:00,
2013-03-09 23:07:00,45.1,40.3,30.27,NE,55,0.0,0.0,83,0.00,,,0.00,WeatherTracker,2013-03-10 07:07:00,
2013-03-09 23:12:00,45.0,40.2,30.27,NE,55,0.0,0.0,83,0.00,,,0.00,WeatherTracker,2013-03-10 07:12:00,
2013-03-09 23:17:00,44.8,40.0,30.27,NE,55,0.0,0.0,83,0.00,,,0.00,WeatherTracker,2013-03-10 07:17:00,
2013-03-09 23:22:00,44.7,39.9,30.27,NE,55,0.0,0.0,83,0.00,,,0.00,WeatherTracker,2013-03-10 07:22:00,
2013-03-09 23:27:00,44.5,39.7,30.27,NE,55,0.0,0.0,83,0.00,,,0.00,WeatherTracker,2013-03-10 07:27:00,
2013-03-09 23:32:00,44.4,39.9,30.27,NE,55,0.0,0.0,84,0.00,,,0.00,WeatherTracker,2013-03-10 07:32:00,
2013-03-09 23:37:00,44.2,39.7,30.27,NE,55,0.0,0.0,84,0.00,,,0.00,WeatherTracker,2013-03-10 07:37:00,
2013-03-09 23:42:00,44.1,39.6,30.27,NE,55,0.0,0.0,84,0.00,,,0.00,WeatherTracker,2013-03-10 07:42:00,
2013-03-09 23:47:00,44.1,39.6,30.27,NE,55,0.0,0.0,84,0.00,,,0.00,WeatherTracker,2013-03-10 07:47:00,
2013-03-09 23:52:00,44.0,39.8,30.27,NE,55,0.0,0.0,85,0.00,,,0.00,WeatherTracker,2013-03-10 07:52:00,
2013-03-09 23:57:00,43.9,39.7,30.27,NE,55,0.0,0.0,85,0.00,,,0.00,WeatherTracker,2013-03-10 07:57:00,